| time (UTC) | temp C | wind direction | speed KPH | gust KPH | rain 1hr cm | rain 24hr cm | rain mn cm | humidity % | barometer mb |
| 20260904032034 | 16 | 290 | 1.6 | 6.4 | 0.00 | 0.00 | 0.00 | 86 | 1007.4 |
| 20260904031535 | 16 | 290 | 1.6 | 3.2 | 0.00 | 0.00 | 0.00 | 86 | 1007.4 |
| 20260904031035 | 16 | 290 | 1.6 | 6.4 | 0.00 | 0.00 | 0.00 | 86 | 1007.4 |
| 20260904025023 | 17 | 279 | 3.2 | 6.4 | 0.00 | 0.00 | 0.00 | 85 | 1007.4 |
| 20260904024522 | 17 | 281 | 4.8 | 11.3 | 0.00 | 0.00 | 0.00 | 85 | 1007.4 |
| 20260904024027 | 17 | 282 | 4.8 | 11.3 | 0.00 | 0.00 | 0.00 | 84 | 1007.4 |
| 20260904023521 | 17 | 314 | 4.8 | 11.3 | 0.00 | 0.00 | 0.00 | 84 | 1007.4 |
| 20260904023021 | 17 | 301 | 6.4 | 11.3 | 0.00 | 0.00 | 0.00 | 84 | 1007.4 |
| 20260904022524 | 17 | 294 | 6.4 | 12.9 | 0.00 | 0.00 | 0.00 | 83 | 1007.3 |
| 20260904021018 | 17 | 309 | 6.4 | 14.5 | 0.00 | 0.00 | 0.00 | 82 | 1007.2 |
| 20260904020516 | 17 | 303 | 6.4 | 14.5 | 0.00 | 0.00 | 0.00 | 81 | 1007.2 |
| 20260904015513 | 18 | 288 | 6.4 | 14.5 | 0.00 | 0.00 | 0.00 | 80 | 1007.2 |
| 20260904014505 | 18 | 281 | 6.4 | 14.5 | 0.00 | 0.00 | 0.00 | 79 | 1007.2 |
| 20260904014007 | 18 | 309 | 6.4 | 14.5 | 0.00 | 0.00 | 0.00 | 78 | 1007.3 |
| 20260904013502 | 18 | 279 | 6.4 | 12.9 | 0.00 | 0.00 | 0.00 | 78 | 1007.3 |
| 20260904012959 | 18 | 284 | 6.4 | 17.7 | 0.00 | 0.00 | 0.00 | 77 | 1007.3 |
| 20260904012458 | 19 | 295 | 6.4 | 16.1 | 0.00 | 0.00 | 0.00 | 76 | 1007.4 |
| 20260904011956 | 19 | 275 | 6.4 | 16.1 | 0.00 | 0.00 | 0.00 | 75 | 1007.4 |
| 20260904011458 | 19 | 306 | 8.0 | 16.1 | 0.00 | 0.00 | 0.00 | 75 | 1007.4 |
| 20260904010956 | 20 | 307 | 8.0 | 17.7 | 0.00 | 0.00 | 0.00 | 74 | 1007.5 |
| 20260904010457 | 20 | 313 | 8.0 | 19.3 | 0.00 | 0.00 | 0.00 | 74 | 1007.5 |
| 20260904005956 | 20 | 275 | 8.0 | 22.5 | 0.00 | 0.00 | 0.00 | 73 | 1007.5 |
| 20260904005454 | 20 | 293 | 8.0 | 22.5 | 0.00 | 0.00 | 0.00 | 71 | 1007.5 |
| 20260904004958 | 21 | 312 | 6.4 | 17.7 | 0.00 | 0.00 | 0.00 | 69 | 1007.5 |
| 20260904003950 | 21 | 311 | 6.4 | 12.9 | 0.00 | 0.00 | 0.00 | 66 | 1007.6 |
| 20260904002948 | 21 | 315 | 6.4 | 16.1 | 0.00 | 0.00 | 0.00 | 67 | 1007.6 |
| 20260904002447 | 21 | 303 | 8.0 | 17.7 | 0.00 | 0.00 | 0.00 | 67 | 1007.6 |
| 20260904001946 | 21 | 315 | 8.0 | 17.7 | 0.00 | 0.00 | 0.00 | 67 | 1007.6 |
| 20260904001445 | 21 | 324 | 8.0 | 17.7 | 0.00 | 0.00 | 0.00 | 68 | 1007.6 |
| 20260904000941 | 21 | 312 | 8.0 | 17.7 | 0.00 | 0.00 | 0.00 | 67 | 1007.6 |
| 20260904000444 | 21 | 311 | 8.0 | 17.7 | 0.00 | 0.00 | 0.00 | 68 | 1007.6 |
| 20260903235942 | 22 | 301 | 8.0 | 17.7 | 0.00 | 0.00 | 0.00 | 66 | 1007.6 |
| 20260903235441 | 22 | 0 | 8.0 | 16.1 | 0.00 | 0.00 | 0.00 | 65 | 1007.8 |
| 20260903234940 | 22 | 321 | 8.0 | 16.1 | 0.00 | 0.00 | 0.00 | 66 | 1007.8 |
| 20260903234439 | 22 | 319 | 8.0 | 16.1 | 0.00 | 0.00 | 0.00 | 66 | 1007.8 |
| 20260903233936 | 22 | 323 | 8.0 | 17.7 | 0.00 | 0.00 | 0.00 | 67 | 1007.8 |
| 20260903232934 | 22 | 302 | 9.7 | 22.5 | 0.00 | 0.00 | 0.00 | 65 | 1007.8 |
| 20260903231436 | 22 | 303 | 8.0 | 19.3 | 0.00 | 0.00 | 0.00 | 64 | 1008.0 |
| 20260903230940 | 22 | 58 | 8.0 | 17.7 | 0.00 | 0.00 | 0.00 | 65 | 1008.0 |
| 20260903230434 | 22 | 309 | 8.0 | 19.3 | 0.00 | 0.00 | 0.00 | 64 | 1008.0 |
| 20260903225930 | 22 | 312 | 8.0 | 19.3 | 0.00 | 0.00 | 0.00 | 62 | 1008.0 |
| 20260903224929 | 22 | 298 | 8.0 | 19.3 | 0.00 | 0.00 | 0.00 | 65 | 1008.1 |
| 20260903224431 | 22 | 321 | 9.7 | 20.9 | 0.00 | 0.00 | 0.00 | 63 | 1008.1 |
| 20260903223927 | 22 | 0 | 9.7 | 20.9 | 0.00 | 0.00 | 0.00 | 63 | 1008.1 |
| 20260903222424 | 22 | 305 | 11.3 | 20.9 | 0.00 | 0.00 | 0.00 | 62 | 1008.1 |
| 20260903221921 | 23 | 294 | 9.7 | 20.9 | 0.00 | 0.00 | 0.00 | 62 | 1008.1 |
| 20260903221416 | 23 | 326 | 9.7 | 20.9 | 0.00 | 0.00 | 0.00 | 62 | 1008.1 |
| 20260903220917 | 23 | 335 | 9.7 | 19.3 | 0.00 | 0.00 | 0.00 | 62 | 1008.3 |
| 20260903220416 | 23 | 305 | 8.0 | 19.3 | 0.00 | 0.00 | 0.00 | 61 | 1008.3 |
| 20260903215915 | 23 | 338 | 9.7 | 19.3 | 0.00 | 0.00 | 0.00 | 62 | 1008.3 |
| 20260903215413 | 23 | 322 | 9.7 | 19.3 | 0.00 | 0.00 | 0.00 | 62 | 1008.6 |
| 20260903214910 | 22 | 304 | 11.3 | 20.9 | 0.00 | 0.00 | 0.00 | 63 | 1008.6 |
| 20260903214407 | 22 | 310 | 11.3 | 20.9 | 0.00 | 0.00 | 0.00 | 62 | 1008.6 |
| 20260903213906 | 23 | 311 | 8.0 | 19.3 | 0.00 | 0.00 | 0.00 | 61 | 1008.6 |
| 20260903213404 | 23 | 319 | 8.0 | 16.1 | 0.00 | 0.00 | 0.00 | 60 | 1008.6 |
| 20260903212403 | 23 | 308 | 9.7 | 19.3 | 0.00 | 0.00 | 0.00 | 60 | 1008.5 |
| 20260903211901 | 23 | 320 | 8.0 | 19.3 | 0.00 | 0.00 | 0.00 | 60 | 1008.5 |
| 20260903211357 | 24 | 338 | 8.0 | 17.7 | 0.00 | 0.00 | 0.00 | 60 | 1008.6 |
| 20260903210858 | 24 | 313 | 8.0 | 19.3 | 0.00 | 0.00 | 0.00 | 61 | 1008.6 |
| 20260903210356 | 23 | 351 | 8.0 | 19.3 | 0.00 | 0.00 | 0.00 | 61 | 1008.6 |
| 20260903205854 | 24 | 323 | 8.0 | 17.7 | 0.00 | 0.00 | 0.00 | 60 | 1008.6 |
| 20260903205351 | 23 | 312 | 8.0 | 20.9 | 0.00 | 0.00 | 0.00 | 61 | 1008.6 |
| 20260903204848 | 24 | 334 | 8.0 | 20.9 | 0.00 | 0.00 | 0.00 | 60 | 1008.6 |
| 20260903203847 | 24 | 329 | 8.0 | 19.3 | 0.00 | 0.00 | 0.00 | 58 | 1008.6 |
| 20260903203344 | 24 | 341 | 6.4 | 16.1 | 0.00 | 0.00 | 0.00 | 59 | 1008.6 |
| 20260903201844 | 23 | 316 | 8.0 | 16.1 | 0.00 | 0.00 | 0.00 | 60 | 1008.6 |
| 20260903201342 | 24 | 327 | 8.0 | 17.7 | 0.00 | 0.00 | 0.00 | 60 | 1008.6 |
| 20260903200843 | 24 | 313 | 8.0 | 17.7 | 0.00 | 0.00 | 0.00 | 58 | 1008.6 |
| 20260903195843 | 24 | 5 | 8.0 | 17.7 | 0.00 | 0.00 | 0.00 | 59 | 1008.9 |
| 20260903195340 | 24 | 317 | 8.0 | 17.7 | 0.00 | 0.00 | 0.00 | 59 | 1008.9 |
| 20260903194842 | 24 | 312 | 6.4 | 17.7 | 0.00 | 0.00 | 0.00 | 59 | 1008.9 |
| 20260903194338 | 24 | 311 | 6.4 | 14.5 | 0.00 | 0.00 | 0.00 | 59 | 1009.0 |
| 20260903193839 | 24 | 322 | 6.4 | 14.5 | 0.00 | 0.00 | 0.00 | 59 | 1009.0 |
| 20260903193335 | 23 | 305 | 8.0 | 20.9 | 0.00 | 0.00 | 0.00 | 60 | 1009.0 |
| 20260903191828 | 23 | 318 | 8.0 | 19.3 | 0.00 | 0.00 | 0.00 | 61 | 1009.1 |
| 20260903190322 | 23 | 325 | 8.0 | 16.1 | 0.00 | 0.00 | 0.00 | 62 | 1009.2 |
| 20260903185820 | 23 | 22 | 8.0 | 16.1 | 0.00 | 0.00 | 0.00 | 62 | 1009.3 |
| 20260903184318 | 23 | 315 | 8.0 | 20.9 | 0.00 | 0.00 | 0.00 | 62 | 1009.6 |
| 20260903183318 | 23 | 318 | 6.4 | 17.7 | 0.00 | 0.00 | 0.00 | 62 | 1009.6 |
| 20260903182816 | 23 | 320 | 6.4 | 14.5 | 0.00 | 0.00 | 0.00 | 64 | 1009.6 |
| 20260903182312 | 22 | 311 | 6.4 | 12.9 | 0.00 | 0.00 | 0.00 | 62 | 1009.6 |
| 20260903181811 | 22 | 337 | 6.4 | 14.5 | 0.00 | 0.00 | 0.00 | 62 | 1009.6 |
| 20260903181307 | 23 | 309 | 6.4 | 14.5 | 0.00 | 0.00 | 0.00 | 60 | 1009.7 |
| 20260903180804 | 23 | 321 | 6.4 | 12.9 | 0.00 | 0.00 | 0.00 | 59 | 1009.7 |
| 20260903180305 | 23 | 355 | 4.8 | 12.9 | 0.00 | 0.00 | 0.00 | 59 | 1009.7 |
| 20260903175804 | 23 | 13 | 4.8 | 9.7 | 0.00 | 0.00 | 0.00 | 61 | 1009.7 |
| 20260903174759 | 23 | 309 | 4.8 | 9.7 | 0.00 | 0.00 | 0.00 | 61 | 1009.7 |
| 20260903174259 | 22 | 344 | 3.2 | 11.3 | 0.00 | 0.00 | 0.00 | 62 | 1009.7 |
| 20260903173755 | 22 | 334 | 4.8 | 11.3 | 0.00 | 0.00 | 0.00 | 63 | 1009.7 |
| 20260903173251 | 22 | 328 | 3.2 | 9.7 | 0.00 | 0.00 | 0.00 | 63 | 1009.7 |
| 20260903172750 | 22 | 329 | 4.8 | 12.9 | 0.00 | 0.00 | 0.00 | 64 | 1009.8 |
| 20260903172250 | 22 | 327 | 4.8 | 12.9 | 0.00 | 0.00 | 0.00 | 64 | 1009.7 |
| 20260903171751 | 21 | 340 | 3.2 | 9.7 | 0.00 | 0.00 | 0.00 | 66 | 1009.7 |
| 20260903171248 | 21 | 333 | 3.2 | 8.0 | 0.00 | 0.00 | 0.00 | 68 | 1009.7 |
| 20260903170747 | 20 | 333 | 4.8 | 8.0 | 0.00 | 0.00 | 0.00 | 68 | 1009.7 |
| 20260903170246 | 20 | 334 | 4.8 | 9.7 | 0.00 | 0.00 | 0.00 | 70 | 1009.7 |
| 20260903165745 | 20 | 334 | 4.8 | 9.7 | 0.00 | 0.00 | 0.00 | 71 | 1010.0 |
| 20260903164743 | 20 | 317 | 3.2 | 8.0 | 0.00 | 0.00 | 0.00 | 70 | 1010.0 |
| 20260903164242 | 20 | 322 | 3.2 | 8.0 | 0.00 | 0.00 | 0.00 | 73 | 1010.1 |
| 20260903163738 | 20 | 321 | 4.8 | 11.3 | 0.00 | 0.00 | 0.00 | 74 | 1010.1 |
| 20260903162738 | 19 | 327 | 3.2 | 9.7 | 0.00 | 0.00 | 0.00 | 76 | 1010.1 |
| 20260903162234 | 18 | 5 | 3.2 | 9.7 | 0.00 | 0.00 | 0.00 | 78 | 1010.1 |
| 20260903161736 | 18 | 320 | 4.8 | 9.7 | 0.00 | 0.00 | 0.00 | 77 | 1010.1 |
| 20260903160730 | 17 | 329 | 4.8 | 8.0 | 0.00 | 0.00 | 0.00 | 81 | 1010.2 |
| 20260903155226 | 17 | 331 | 3.2 | 9.7 | 0.00 | 0.00 | 0.00 | 85 | 1010.1 |
| 20260903154723 | 16 | 328 | 4.8 | 9.7 | 0.00 | 0.00 | 0.00 | 86 | 1010.1 |
| 20260903154223 | 16 | 317 | 4.8 | 9.7 | 0.00 | 0.00 | 0.00 | 86 | 1010.2 |
| 20260903153726 | 16 | 329 | 3.2 | 9.7 | 0.00 | 0.00 | 0.00 | 86 | 1010.2 |
| 20260903153223 | 16 | 329 | 3.2 | 9.7 | 0.00 | 0.00 | 0.00 | 87 | 1010.2 |
| 20260903152721 | 16 | 333 | 3.2 | 8.0 | 0.00 | 0.00 | 0.00 | 88 | 1010.4 |
| 20260903152220 | 16 | 333 | 3.2 | 8.0 | 0.00 | 0.00 | 0.00 | 88 | 1010.4 |
| 20260903151216 | 16 | 343 | 3.2 | 6.4 | 0.00 | 0.00 | 0.00 | 89 | 1010.5 |
| 20260903150714 | 15 | 344 | 3.2 | 6.4 | 0.00 | 0.00 | 0.00 | 90 | 1010.5 |
| 20260903150218 | 15 | 344 | 3.2 | 6.4 | 0.00 | 0.00 | 0.00 | 90 | 1010.5 |
| 20260903145210 | 15 | 341 | 3.2 | 8.0 | 0.00 | 0.00 | 0.00 | 91 | 1010.5 |
| 20260903144705 | 15 | 325 | 3.2 | 8.0 | 0.00 | 0.00 | 0.00 | 92 | 1010.5 |
| 20260903144202 | 15 | 313 | 1.6 | 8.0 | 0.00 | 0.00 | 0.00 | 92 | 1010.4 |
| 20260903143658 | 14 | 290 | 1.6 | 4.8 | 0.00 | 0.00 | 0.00 | 92 | 1010.4 |
| 20260903143158 | 14 | 290 | 1.6 | 6.4 | 0.00 | 0.00 | 0.00 | 93 | 1010.4 |
| 20260903142154 | 14 | 290 | 1.6 | 4.8 | 0.00 | 0.00 | 0.00 | 93 | 1010.1 |
| 20260903141145 | 13 | 290 | 0.0 | 3.2 | 0.00 | 0.00 | 0.00 | 93 | 1010.1 |
| 20260903140647 | 13 | 290 | 1.6 | 4.8 | 0.00 | 0.00 | 0.00 | 93 | 1010.1 |
| 20260903140146 | 13 | 290 | 1.6 | 6.4 | 0.00 | 0.00 | 0.00 | 93 | 1010.1 |
| 20260903135640 | 13 | 290 | 3.2 | 6.4 | 0.00 | 0.00 | 0.00 | 93 | 1010.0 |
| 20260903135137 | 13 | 290 | 1.6 | 4.8 | 0.00 | 0.00 | 0.00 | 93 | 1010.0 |
| 20260903134136 | 13 | 290 | 1.6 | 6.4 | 0.00 | 0.00 | 0.00 | 92 | 1010.0 |
| 20260903133136 | 13 | 290 | 0.0 | 4.8 | 0.00 | 0.00 | 0.00 | 92 | 1010.0 |
| 20260903132632 | 13 | 290 | 0.0 | 3.2 | 0.00 | 0.00 | 0.00 | 92 | 1010.0 |
| 20260903132128 | 13 | 290 | 0.0 | 3.2 | 0.00 | 0.00 | 0.00 | 92 | 1010.0 |
| 20260903131630 | 13 | 290 | 1.6 | 4.8 | 0.00 | 0.00 | 0.00 | 92 | 1010.0 |
| 20260903131126 | 13 | 290 | 1.6 | 4.8 | 0.00 | 0.00 | 0.00 | 91 | 1010.0 |
| 20260903130619 | 13 | 290 | 1.6 | 3.2 | 0.00 | 0.00 | 0.00 | 91 | 1010.0 |
| 20260903130116 | 13 | 290 | 0.0 | 3.2 | 0.00 | 0.00 | 0.00 | 91 | 1010.0 |
| 20260903125617 | 13 | 290 | 0.0 | 3.2 | 0.00 | 0.00 | 0.00 | 91 | 1010.0 |
| 20260903125117 | 14 | 290 | 1.6 | 3.2 | 0.00 | 0.00 | 0.00 | 91 | 1010.0 |
| 20260903124610 | 14 | 290 | 0.0 | 3.2 | 0.00 | 0.00 | 0.00 | 91 | 1010.0 |
| 20260903124108 | 14 | 290 | 1.6 | 3.2 | 0.00 | 0.00 | 0.00 | 91 | 1009.8 |
| 20260903123611 | 14 | 290 | 1.6 | 3.2 | 0.00 | 0.00 | 0.00 | 90 | 1009.8 |
| 20260903123105 | 14 | 290 | 1.6 | 3.2 | 0.00 | 0.00 | 0.00 | 90 | 1009.8 |
| 20260903122604 | 14 | 290 | 1.6 | 3.2 | 0.00 | 0.00 | 0.00 | 90 | 1009.9 |
| 20260903122101 | 14 | 290 | 1.6 | 3.2 | 0.00 | 0.00 | 0.00 | 90 | 1009.9 |
| 20260903121558 | 14 | 290 | 0.0 | 3.2 | 0.00 | 0.00 | 0.00 | 91 | 1009.9 |
| 20260903121058 | 15 | 290 | 0.0 | 4.8 | 0.00 | 0.00 | 0.00 | 91 | 1010.0 |
| 20260903120558 | 15 | 290 | 0.0 | 4.8 | 0.00 | 0.00 | 0.00 | 91 | 1010.0 |
| 20260903120057 | 15 | 290 | 0.0 | 3.2 | 0.00 | 0.00 | 0.00 | 91 | 1010.0 |
| 20260903115555 | 15 | 290 | 1.6 | 6.4 | 0.00 | 0.00 | 0.00 | 91 | 1010.1 |
| 20260903115053 | 15 | 290 | 1.6 | 6.4 | 0.00 | 0.00 | 0.00 | 91 | 1010.1 |
| 20260903114552 | 15 | 290 | 0.0 | 3.2 | 0.00 | 0.00 | 0.00 | 92 | 1010.1 |
| 20260903114050 | 15 | 290 | 0.0 | 0.0 | 0.00 | 0.00 | 0.00 | 92 | 1010.1 |
| 20260903113550 | 14 | 290 | 0.0 | 0.0 | 0.00 | 0.00 | 0.00 | 92 | 1010.1 |
| 20260903112047 | 14 | 290 | 0.0 | 1.6 | 0.00 | 0.00 | 0.00 | 92 | 1010.2 |
| 20260903111545 | 14 | 290 | 0.0 | 3.2 | 0.00 | 0.00 | 0.00 | 92 | 1010.2 |
| 20260903111045 | 14 | 290 | 0.0 | 3.2 | 0.00 | 0.00 | 0.00 | 92 | 1010.3 |
| 20260903110052 | 14 | 290 | 0.0 | 3.2 | 0.00 | 0.00 | 0.00 | 93 | 1010.3 |
| 20260903105544 | 14 | 290 | 0.0 | 1.6 | 0.00 | 0.00 | 0.00 | 92 | 1010.5 |
| 20260903105045 | 14 | 290 | 0.0 | 0.0 | 0.00 | 0.00 | 0.00 | 92 | 1010.5 |
| 20260903104540 | 14 | 290 | 0.0 | 0.0 | 0.00 | 0.00 | 0.00 | 92 | 1010.5 |
| 20260903104038 | 14 | 290 | 0.0 | 0.0 | 0.00 | 0.00 | 0.00 | 92 | 1010.5 |
| 20260903103534 | 14 | 290 | 0.0 | 0.0 | 0.00 | 0.00 | 0.00 | 92 | 1010.5 |
| 20260903102029 | 14 | 290 | 0.0 | 0.0 | 0.00 | 0.00 | 0.00 | 92 | 1010.5 |
| 20260903101024 | 14 | 290 | 0.0 | 3.2 | 0.00 | 0.00 | 0.00 | 92 | 1010.5 |
| 20260903100519 | 14 | 290 | 0.0 | 3.2 | 0.00 | 0.00 | 0.00 | 92 | 1010.5 |
| 20260903100019 | 14 | 290 | 1.6 | 4.8 | 0.00 | 0.00 | 0.00 | 92 | 1010.5 |
| 20260903095516 | 14 | 290 | 1.6 | 4.8 | 0.00 | 0.00 | 0.00 | 92 | 1010.5 |
| 20260903095011 | 14 | 290 | 1.6 | 4.8 | 0.00 | 0.00 | 0.00 | 91 | 1010.5 |
| 20260903094516 | 14 | 290 | 1.6 | 4.8 | 0.00 | 0.00 | 0.00 | 91 | 1010.5 |
| 20260903094012 | 14 | 290 | 1.6 | 3.2 | 0.00 | 0.00 | 0.00 | 91 | 1010.6 |
| 20260903093504 | 14 | 290 | 0.0 | 6.4 | 0.00 | 0.00 | 0.00 | 91 | 1010.6 |
| 20260903093006 | 14 | 290 | 1.6 | 6.4 | 0.00 | 0.00 | 0.00 | 91 | 1010.6 |
| 20260903092502 | 14 | 290 | 1.6 | 4.8 | 0.00 | 0.00 | 0.00 | 91 | 1010.9 |
| 20260903092000 | 14 | 290 | 1.6 | 4.8 | 0.00 | 0.00 | 0.00 | 91 | 1010.9 |
| 20260903091500 | 15 | 290 | 1.6 | 4.8 | 0.00 | 0.00 | 0.00 | 91 | 1010.9 |
| 20260903090958 | 15 | 290 | 1.6 | 4.8 | 0.00 | 0.00 | 0.00 | 91 | 1011.1 |
| 20260903090458 | 15 | 290 | 1.6 | 4.8 | 0.00 | 0.00 | 0.00 | 91 | 1011.1 |
| 20260903085955 | 15 | 290 | 1.6 | 4.8 | 0.00 | 0.00 | 0.00 | 91 | 1011.1 |
| 20260903085459 | 15 | 290 | 1.6 | 9.7 | 0.00 | 0.00 | 0.00 | 91 | 1011.1 |
| 20260903084452 | 15 | 290 | 3.2 | 8.0 | 0.00 | 0.00 | 0.00 | 90 | 1011.1 |
| 20260903083950 | 15 | 290 | 1.6 | 8.0 | 0.00 | 0.00 | 0.00 | 90 | 1011.1 |
| 20260903083449 | 15 | 290 | 1.6 | 4.8 | 0.00 | 0.00 | 0.00 | 90 | 1011.1 |
| 20260903082445 | 15 | 290 | 1.6 | 4.8 | 0.00 | 0.00 | 0.00 | 90 | 1011.2 |
| 20260903081946 | 15 | 290 | 1.6 | 4.8 | 0.00 | 0.00 | 0.00 | 90 | 1011.2 |
| 20260903081442 | 15 | 290 | 1.6 | 4.8 | 0.00 | 0.00 | 0.00 | 89 | 1011.2 |
| 20260903080438 | 15 | 290 | 0.0 | 3.2 | 0.00 | 0.00 | 0.00 | 89 | 1011.4 |
| 20260903075936 | 15 | 290 | 0.0 | 3.2 | 0.00 | 0.00 | 0.00 | 89 | 1011.4 |
| 20260903074926 | 15 | 290 | 0.0 | 4.8 | 0.00 | 0.00 | 0.00 | 89 | 1011.4 |
| 20260903074420 | 15 | 290 | 1.6 | 4.8 | 0.00 | 0.00 | 0.00 | 89 | 1011.4 |
| 20260903073419 | 15 | 290 | 1.6 | 4.8 | 0.00 | 0.00 | 0.00 | 89 | 1011.5 |
| 20260903072919 | 15 | 290 | 1.6 | 6.4 | 0.00 | 0.00 | 0.00 | 89 | 1011.5 |
| 20260903072418 | 16 | 290 | 1.6 | 6.4 | 0.00 | 0.00 | 0.00 | 89 | 1011.5 |
| 20260903071916 | 16 | 290 | 1.6 | 6.4 | 0.00 | 0.00 | 0.00 | 89 | 1011.5 |
| 20260903071419 | 16 | 290 | 0.0 | 4.8 | 0.00 | 0.00 | 0.00 | 90 | 1011.5 |
| 20260903070914 | 16 | 290 | 0.0 | 4.8 | 0.00 | 0.00 | 0.00 | 90 | 1011.5 |
| 20260903070411 | 16 | 290 | 0.0 | 6.4 | 0.00 | 0.00 | 0.00 | 90 | 1011.5 |
| 20260903065906 | 16 | 290 | 1.6 | 6.4 | 0.00 | 0.00 | 0.00 | 90 | 1011.5 |
| 20260903065407 | 16 | 290 | 0.0 | 4.8 | 0.00 | 0.00 | 0.00 | 90 | 1011.3 |
| 20260903064907 | 16 | 290 | 1.6 | 4.8 | 0.00 | 0.00 | 0.00 | 90 | 1011.3 |
| 20260903064405 | 16 | 290 | 1.6 | 4.8 | 0.00 | 0.00 | 0.00 | 90 | 1011.3 |
| 20260903063909 | 16 | 290 | 1.6 | 9.7 | 0.00 | 0.00 | 0.00 | 90 | 1011.2 |
| 20260903062857 | 16 | 294 | 3.2 | 9.7 | 0.00 | 0.00 | 0.00 | 90 | 1011.2 |
| 20260903062357 | 16 | 328 | 3.2 | 6.4 | 0.00 | 0.00 | 0.00 | 90 | 1011.2 |
| 20260903061858 | 16 | 329 | 3.2 | 6.4 | 0.00 | 0.00 | 0.00 | 90 | 1011.2 |
| 20260903061355 | 16 | 329 | 3.2 | 6.4 | 0.00 | 0.00 | 0.00 | 90 | 1011.3 |
| 20260903060851 | 16 | 329 | 3.2 | 8.0 | 0.00 | 0.00 | 0.00 | 90 | 1011.3 |
| 20260903060350 | 16 | 329 | 3.2 | 8.0 | 0.00 | 0.00 | 0.00 | 90 | 1011.3 |
| 20260903055847 | 16 | 289 | 4.8 | 9.7 | 0.00 | 0.00 | 0.00 | 90 | 1011.3 |
| 20260903054847 | 16 | 331 | 3.2 | 9.7 | 0.00 | 0.00 | 0.00 | 90 | 1011.3 |
| 20260903053846 | 16 | 342 | 3.2 | 6.4 | 0.00 | 0.00 | 0.00 | 90 | 1011.4 |
| 20260903053345 | 16 | 342 | 3.2 | 6.4 | 0.00 | 0.00 | 0.00 | 90 | 1011.4 |
| 20260903052846 | 16 | 342 | 3.2 | 6.4 | 0.00 | 0.00 | 0.00 | 90 | 1011.3 |
| 20260903052340 | 16 | 342 | 1.6 | 6.4 | 0.00 | 0.00 | 0.00 | 89 | 1011.3 |
| 20260903051837 | 17 | 342 | 1.6 | 6.4 | 0.00 | 0.00 | 0.00 | 89 | 1011.3 |
| 20260903051334 | 17 | 342 | 1.6 | 6.4 | 0.00 | 0.00 | 0.00 | 89 | 1011.3 |
| 20260903050835 | 17 | 343 | 1.6 | 9.7 | 0.00 | 0.00 | 0.00 | 89 | 1011.3 |
| 20260903045833 | 17 | 319 | 3.2 | 8.0 | 0.00 | 0.00 | 0.00 | 89 | 1011.2 |
| 20260903044332 | 17 | 319 | 3.2 | 8.0 | 0.00 | 0.00 | 0.00 | 88 | 1011.2 |
| 20260903042832 | 17 | 319 | 3.2 | 6.4 | 0.00 | 0.00 | 0.00 | 88 | 1011.1 |
| 20260903042328 | 17 | 319 | 3.2 | 8.0 | 0.00 | 0.00 | 0.00 | 88 | 1011.1 |
| 20260903041828 | 17 | 321 | 4.8 | 11.3 | 0.00 | 0.00 | 0.00 | 88 | 1011.1 |
| 20260903041325 | 17 | 321 | 3.2 | 11.3 | 0.00 | 0.00 | 0.00 | 88 | 1011.1 |
| 20260903040825 | 17 | 310 | 3.2 | 8.0 | 0.00 | 0.00 | 0.00 | 88 | 1011.1 |
| 20260903040324 | 17 | 274 | 3.2 | 16.1 | 0.00 | 0.00 | 0.00 | 88 | 1011.1 |
| 20260903035821 | 17 | 270 | 4.8 | 16.1 | 0.00 | 0.00 | 0.00 | 88 | 1010.9 |
| 20260903035320 | 17 | 302 | 6.4 | 12.9 | 0.00 | 0.00 | 0.00 | 88 | 1010.9 |
| 20260903034820 | 17 | 265 | 4.8 | 12.9 | 0.00 | 0.00 | 0.00 | 88 | 1010.9 |
| 20260903034320 | 17 | 284 | 4.8 | 14.5 | 0.00 | 0.00 | 0.00 | 87 | 1010.7 |
| 20260903033818 | 17 | 305 | 4.8 | 14.5 | 0.00 | 0.00 | 0.00 | 87 | 1010.7 |
| 20260903033320 | 17 | 277 | 4.8 | 11.3 | 0.00 | 0.00 | 0.00 | 87 | 1010.7 |
| 20260903032816 | 17 | 278 | 4.8 | 11.3 | 0.00 | 0.00 | 0.00 | 86 | 1010.6 |